Weather History for Jordan, MT

Change the Weather History Date:

Tuesday, November 20, 2012

  Actual Average Record
Temperature  
Mean Temperature 50 °F 28 °F  
Max Temperature 65 °F 41 °F 68 °F (1968)
Min Temperature 35 °F 15 °F -25 °F (1985)
Degree Days  
Heating Degree Days 15 37  
Month to date heating degree days 608 650  
Since 1 July heating degree days 1425 1623  
Cooling Degree Days 0 0  
Month to date cooling degree days 0 0  
Year to date cooling degree days 728 421  
Moisture  
Dew Point 33 °F    
Average Humidity 58    
Maximum Humidity 85    
Minimum Humidity 31    
Precipitation  
Precipitation 0.00 in 0.01 in 0.98 in (2007)
Month to date precipitation 0.74 0.29  
Year to date precipitation 7.69 12.31  
Snow  
Snow 0.00 in - - ()
Month to date snowfall 0.0  
Since 1 July snowfall 0.0  
Since 1 September snowfall 0.0  
Snow Depth 0.00 in    
Sea Level Pressure  
Sea Level Pressure 29.85 in    
Wind  
Wind Speed 6 mph (SW)    
Max Wind Speed 22 mph    
Max Gust Speed 28 mph    
T = Trace of Precipitation, MM = Missing Value Source: NWS Daily Summary

Daily Weather History Graph

Daily Weather History Graph

Search for Another Location

Airport:

Trip Planner

Search our weather history database for the weather conditions in past years. The results will help you decide how hot, cold, wet, or windy it might be!

Date:

Astronomy

Nov. 20, 2012 Rise Set
Actual Time 7:20 AM MST 4:26 PM MST
Civil Twilight 6:46 AM MST 5:00 PM MST
Nautical Twilight 6:08 AM MST 5:38 PM MST
Astronomical Twilight 5:32 AM MST 6:14 PM MST
Moon 12:41 PM MST (11/20) No Moon Set
Length of Visible Light 10h 14m
Length of Day
9h 06m
First Quarter, 52% of the Moon is Illuminated
Nov 20
First Quarter
Nov 28
Full
Dec 6
Last Quarter
Dec 13
New
Dec 19
First Quarter

Hourly Weather History & Observations

Time (MST) Temp. Windchill Dew Point Humidity Pressure Visibility Wind Dir Wind Speed Gust Speed Precip Events Conditions
12:48 AM 44.1 °F 37.1 °F 30.0 °F 58% 29.87 in - SSW 15.0 mph - N/A   Unknown
1:48 AM 44.1 °F 37.7 °F 30.0 °F 58% 29.86 in - SSW 12.7 mph - N/A   Unknown
2:48 AM 46.0 °F 39.6 °F 30.0 °F 54% 29.85 in - SSW 15.0 mph - N/A   Unknown
3:48 AM 44.1 °F 38.1 °F 30.0 °F 58% 29.84 in - SSW 11.5 mph - N/A   Unknown
4:48 AM 43.0 °F 37.2 °F 30.0 °F 60% 29.86 in - SW 10.4 mph - N/A   Unknown
5:48 AM 41.0 °F 37.1 °F 28.9 °F 62% 29.88 in - SSW 5.8 mph - N/A   Unknown
6:48 AM 37.9 °F 33.5 °F 28.9 °F 70% 29.90 in - SW 5.8 mph - N/A   Unknown
7:48 AM 37.9 °F 34.4 °F 30.0 °F 73% 29.92 in - WSW 4.6 mph - N/A   Unknown
8:48 AM 44.1 °F 42.5 °F 32.0 °F 63% 29.90 in - WSW 3.5 mph - N/A   Unknown
10:48 AM 55.9 °F - 35.1 °F 45% 29.88 in - Calm Calm - N/A   Unknown
11:48 AM 64.0 °F - 34.0 °F 33% 29.84 in - WSW 17.3 mph 25.3 mph N/A   Unknown
12:48 PM 62.1 °F - 35.1 °F 37% 29.84 in - WSW 11.5 mph - N/A   Unknown
1:48 PM 61.0 °F - 36.0 °F 39% 29.82 in - West 4.6 mph - N/A   Unknown
2:48 PM 57.9 °F - 36.0 °F 44% 29.81 in - SSW 8.1 mph - N/A   Unknown
3:48 PM 54.0 °F - 37.0 °F 53% 29.82 in - Calm Calm - N/A   Unknown
4:48 PM 52.0 °F - 37.0 °F 57% 29.83 in - SSE 3.5 mph - N/A   Unknown
5:48 PM 50.0 °F - 37.0 °F 61% 29.84 in - Calm Calm - N/A   Unknown
6:48 PM 48.9 °F - 36.0 °F 61% 29.83 in - Calm Calm - N/A   Unknown
7:48 PM 42.1 °F - 34.0 °F 73% 29.84 in - Calm Calm - N/A   Unknown
8:48 PM 45.0 °F - 37.0 °F 74% 29.82 in - Calm Calm - N/A   Unknown
9:48 PM 39.0 °F - 34.0 °F 82% 29.82 in - Calm Calm - N/A   Unknown
10:48 PM 37.9 °F 35.5 °F 33.1 °F 83% 29.81 in - SSE 3.5 mph - N/A   Unknown
11:48 PM 37.9 °F - 33.1 °F 83% 29.79 in - Calm Calm - N/A   Unknown